Newport News, VA

7:53 AM EST on February 09, 2016 (GMT -0500)
Newport News-Williamsburg International

Weather History for KPHF - February, 2013

Change the Weather History Date:

Saturday, February 16, 2013

  Actual Average (KORF) Record (KORF)
Temperature  
Mean Temperature 40 °F 43 °F  
Max Temperature 45 °F 51 °F 77 °F (1990)
Min Temperature 35 °F 34 °F 12 °F (1905)
Degree Days  
Heating Degree Days 25 22  
Month to date heating degree days 373  
Since 1 July heating degree days 2315  
Cooling Degree Days 0 0  
Month to date cooling degree days 0  
Year to date cooling degree days 0  
Moisture  
Dew Point 31 °F    
Average Humidity 76    
Maximum Humidity 87    
Minimum Humidity 62    
Precipitation  
Precipitation 0.22 in 0.11 in 1.34 in (2003)
Month to date precipitation 1.74  
Year to date precipitation 5.14  
Snow  
Snow 0.00 in 0.10 in 6.00 in (1922)
Month to date snowfall 1.3  
Since 1 July snowfall 4.9  
Snow Depth -    
Sea Level Pressure  
Sea Level Pressure 29.87 in    
Wind  
Wind Speed 10 mph (North)    
Max Wind Speed 21 mph    
Max Gust Speed 40 mph    
Visibility 6 miles    
Events Rain , Snow    
T = Trace of Precipitation, MM = Missing Value Source: NWS Daily Summary

Daily Weather History Graph

Daily Weather History Graph

Search for Another Location

Airport or City:

Trip Planner

Search our weather history database for the weather conditions in past years. The results will help you decide how hot, cold, wet, or windy it might be!

Date:

Astronomy

Feb. 16, 2013 Rise Set
Actual Time 6:53 AM EST 5:47 PM EST
Civil Twilight 6:26 AM EST 6:13 PM EST
Nautical Twilight 5:56 AM EST 6:44 PM EST
Astronomical Twilight 5:26 AM EST 7:14 PM EST
Moon 10:14 AM EST (2/16) No Moon Set
Length of Visible Light 11h 47m
Length of Day
10h 53m
Waxing Crescent, 39% of the Moon is Illuminated
Feb 16
Waxing Crescent
Feb 17
First Quarter
Feb 25
Full
Mar 4
Last Quarter
Mar 11
New

Hourly Weather History & Observations

Time (EST) Temp. Windchill Dew Point Humidity Pressure Visibility Wind Dir Wind Speed Gust Speed Precip Events Conditions
12:54 AM 45.0 °F 38.2 °F 34.0 °F 65% 29.98 in 10.0 mi NNE 15.0 mph 18.4 mph N/A   Clear
1:54 AM 43.0 °F 37.7 °F 33.1 °F 68% 29.98 in 10.0 mi North 9.2 mph - N/A   Clear
2:54 AM 42.1 °F 35.7 °F 32.0 °F 67% 29.96 in 10.0 mi North 11.5 mph - N/A   Clear
3:54 AM 42.1 °F 37.7 °F 32.0 °F 67% 29.95 in 10.0 mi NNE 6.9 mph - N/A   Overcast
4:54 AM 41.0 °F 36.4 °F 32.0 °F 70% 29.95 in 10.0 mi North 6.9 mph - N/A   Overcast
5:54 AM 41.0 °F 38.0 °F 32.0 °F 70% 29.94 in 10.0 mi NNE 4.6 mph - N/A   Overcast
6:54 AM 42.1 °F - 32.0 °F 67% 29.94 in 10.0 mi North - - N/A   Overcast
7:54 AM 43.0 °F 38.8 °F 30.9 °F 62% - 10.0 mi North 6.9 mph - N/A   Overcast
8:54 AM 43.0 °F 37.2 °F 32.0 °F 65% - 10.0 mi North 10.4 mph - N/A   Overcast
9:32 AM 42.8 °F 35.8 °F 32.0 °F 66% - 10.0 mi North 13.8 mph 20.7 mph N/A   Overcast
9:40 AM 42.8 °F 35.1 °F 33.8 °F 70% - 10.0 mi North 16.1 mph 20.7 mph N/A   Overcast
9:54 AM 42.1 °F 36.1 °F 32.0 °F 67% - 10.0 mi North 10.4 mph 21.9 mph N/A   Overcast
10:40 AM 41.0 °F 33.9 °F 33.8 °F 76% 29.93 in 8.0 mi NNE 12.7 mph 20.7 mph 0.00 in Rain Light Rain
10:51 AM 39.2 °F 33.6 °F 32.0 °F 75% 29.93 in 10.0 mi North 8.1 mph 19.6 mph 0.00 in Rain Light Rain
10:54 AM 41.0 °F 36.4 °F 32.0 °F 70% 29.93 in 10.0 mi North 6.9 mph 19.6 mph 0.00 in Rain Light Rain
11:21 AM 39.2 °F 32.0 °F 32.0 °F 75% 29.93 in 10.0 mi North 11.5 mph - 0.00 in Rain Light Rain
11:43 AM 39.2 °F 33.6 °F 33.8 °F 81% 29.93 in 10.0 mi North 8.1 mph - 0.00 in Rain Light Rain
11:54 AM 39.9 °F 34.5 °F 33.1 °F 77% 29.93 in 10.0 mi North 8.1 mph - 0.00 in Rain Light Rain
12:14 PM 39.2 °F 33.0 °F 33.8 °F 81% 29.93 in 7.0 mi North 9.2 mph - 0.00 in Rain Light Rain
12:23 PM 39.2 °F 33.6 °F 33.8 °F 81% 29.93 in 8.0 mi NNE 8.1 mph - 0.00 in Rain Light Rain
12:54 PM 39.0 °F 33.4 °F 33.1 °F 79% 29.93 in 10.0 mi North 8.1 mph - 0.00 in   Overcast
1:54 PM 39.0 °F 35.7 °F 33.1 °F 79% 29.87 in 3.0 mi North 4.6 mph - 0.02 in Rain Light Rain
2:12 PM 37.4 °F 31.4 °F 32.0 °F 81% - 3.0 mi North 8.1 mph - 0.02 in Rain Light Rain
2:20 PM 37.4 °F 32.8 °F 32.0 °F 81% - 2.5 mi North 5.8 mph - 0.02 in Rain Light Rain
2:54 PM 36.0 °F 30.3 °F 32.0 °F 86% - 1.5 mi North 6.9 mph - 0.05 in Snow Light Snow
3:21 PM 35.6 °F 30.7 °F 32.0 °F 87% - 2.0 mi North 5.8 mph - 0.02 in Snow Light Snow
3:54 PM 36.0 °F 30.3 °F 32.0 °F 86% - 2.5 mi North 6.9 mph - 0.03 in Snow Light Snow
4:19 PM 37.4 °F 32.1 °F 32.0 °F 81% - 3.0 mi North 6.9 mph - 0.01 in Snow Light Snow
4:54 PM 37.0 °F 31.0 °F 32.0 °F 82% - 5.0 mi NNW 8.1 mph - 0.01 in   Overcast
5:54 PM 37.0 °F 31.0 °F 30.9 °F 79% 29.80 in 4.0 mi North 8.1 mph - 0.03 in Rain Light Rain
6:38 PM 35.6 °F 29.9 °F 30.2 °F 81% 29.80 in 2.5 mi NNW 6.9 mph - 0.03 in Snow Light Snow
6:54 PM 36.0 °F 29.0 °F 30.9 °F 82% 29.80 in 3.0 mi North 9.2 mph - 0.04 in Snow Light Snow
7:13 PM 35.6 °F 28.6 °F 30.2 °F 81% 29.80 in 2.0 mi North 9.2 mph - 0.01 in Snow Light Snow
7:24 PM 35.6 °F 28.6 °F 30.2 °F 81% 29.80 in 1.8 mi North 9.2 mph - 0.02 in Snow Light Snow
7:41 PM 35.6 °F 27.5 °F 30.2 °F 81% 29.80 in 2.0 mi North 11.5 mph 18.4 mph 0.03 in Snow Light Snow
7:49 PM 35.6 °F 27.5 °F 30.2 °F 81% 29.81 in 1.5 mi North 11.5 mph 21.9 mph 0.03 in Snow Light Snow
7:54 PM 35.1 °F 26.9 °F 30.0 °F 82% 29.81 in 1.5 mi North 11.5 mph 21.9 mph 0.03 in Snow Light Snow
8:54 PM 35.1 °F 26.4 °F 30.0 °F 82% 29.81 in 1.2 mi North 12.7 mph - 0.01 in Snow Light Snow
9:10 PM 35.6 °F 24.5 °F 28.4 °F 75% 29.80 in 1.5 mi North 20.7 mph 25.3 mph 0.00 in Snow Light Snow
9:36 PM 35.6 °F 27.1 °F 28.4 °F 75% 29.81 in 1.2 mi North 12.7 mph 26.5 mph 0.00 in Snow Light Snow
9:48 PM 35.6 °F 25.5 °F 28.4 °F 75% 29.81 in 2.5 mi North 17.3 mph 25.3 mph 0.00 in Snow Light Snow
9:54 PM 35.1 °F 24.5 °F 28.9 °F 78% 29.81 in 3.0 mi North 18.4 mph 25.3 mph 0.00 in Snow Light Snow
10:14 PM 35.6 °F 27.1 °F 28.4 °F 75% 29.80 in 2.0 mi North 12.7 mph 24.2 mph N/A Snow Light Snow
10:35 PM 35.6 °F 28.0 °F 28.4 °F 75% 29.80 in 3.0 mi NNW 10.4 mph 40.3 mph 0.00 in Snow Light Snow
10:52 PM 35.6 °F 27.5 °F 28.4 °F 75% 29.79 in 8.0 mi NW 11.5 mph 39.1 mph 0.00 in   Overcast
10:54 PM 35.1 °F 26.9 °F 28.9 °F 78% 29.80 in 8.0 mi NNW 11.5 mph 29.9 mph 0.00 in   Overcast
11:54 PM 35.1 °F 26.4 °F 28.0 °F 76% 29.80 in 10.0 mi NNW 12.7 mph - N/A   Overcast